Location: Rayville (historical)
(39.9992°N, 99.6815°W)
Time: 17:35:42
(UTC+00:00)

STARLINK-49 - Pass Details

Date: 18 February 2020
Orbit: 529 x 531 km, 53.0° (Epoch: 01 April)

Event Time Altitude Azimuth Distance (km) Brightness Sun altitude
Rises 01:33:25 0° 223° (SW) 2,651 7.8 -15.3°
Reaches altitude 10° 01:35:37 10° 221° (SW) 1,765 6.8 -15.8°
Maximum altitude 01:39:36 71° 138° (SE) 561 3.5 -16.5°
Enters shadow 01:41:17 33° 62° (ENE) 905 4.2 -16.8°
